sat.trackr.live / text

‹ back to catalog

STARLINK-34314

NORAD 64146 · 2025-112A

PAYLOAD ACTIVE UNKNOWN

§ Identity

Operator
Country
US
Launch date
2025-05-27
Launch site
AFWTR
Launch vehicle
Mass (kg)
RCS (m²)

Purposes: comms

External: N2YO · Heavens-Above · Gunter

§ Orbital elements

Epoch: 2026-05-25T02:18:13.637952Z

Period
95.64 min
Inclination
97.4514°
Eccentricity
0.0001384
Mean motion
15.05634197 rev/d
Perigee alt
548.6 km
Apogee alt
550.5 km
Semi-major
6,927.7 km
B*
-4.8088e-4
RAAN
196.4363°
Arg perigee
208.0989°
Mean anomaly
152.0164°
Rev number
5,480

§ Raw data

STARLINK-343141 64146U 25112A   26145.09599118 -.00006987  00000+0 -48088-3 0  99942 64146  97.4514 196.4363 0001384 208.0989 152.0164 15.05634197 54804

JSON: /api/v1/satellites/64146 · /tle

For live sub-satellite position, see the globe view (requires WebGL).

§ Visibility from observer

Set your observer location to see the next 7 days of passes ≥ 10°. The values pass through the URL so the page stays shareable.

No JS? Fill the form by hand. The geolocation button needs JavaScript.